Temp_Advection
nan nan nan nan nan nan nan nan nan nan nan nan nan nan nan nan nan nan nan nan nan nan nan nan nan nan nan nan nan nan nan nan nan nan nan nan nan nan nan nan nan nan nan
nan -0 -0 -0 -0 -0 -0 0 0 0 -0 -0 0 0 0 0 0 0 -0 -0 0 0 0 0 0 0 0 -0 -0 -0 -0 0 0 0 -0 -0 -0 0 0 0 0 0 nan
nan -0 -0 -0 -0 -0 -0 -0 -0 -0 -0 0 1 0 -0 -0 -0 -0 0 0 0 0 0 0 0 0 -0 -0 0 0 0 0 0 0 0 -0 -0 -0 -0 0 1 0 nan
nan -0 -0 0 -0 -0 -0 -0 -0 0 0 0 -0 -0 -0 0 0 0 0 0 0 1 1 0 0 0 0 0 1 0 0 0 0 0 0 0 0 -0 -0 -0 0 1 nan
nan -0 -0 -0 -0 0 0 0 0 0 0 0 0 0 0 0 0 1 0 1 1 1 0 -0 0 0 0 0 0 0 0 0 0 0 0 0 0 0 0 -0 -0 0 nan
nan -0 0 1 1 0 0 0 0 0 0 0 0 0 0 0 0 0 1 1 0 0 -0 -0 -1 0 0 -0 0 0 0 0 -0 -0 0 0 -0 -0 0 0 0 0 nan
nan 0 0 0 1 0 0 0 0 0 0 0 0 0 0 0 0 0 0 0 0 -0 -0 -0 -1 -0 1 1 1 0 -0 -0 -0 0 1 -0 -1 -0 0 1 0 1 nan
nan 0 0 0 0 -0 0 0 0 0 0 0 0 0 0 0 0 0 0 0 0 0 0 0 0 0 0 0 0 1 0 -0 -0 -1 -0 0 -0 -0 -0 0 1 1 nan
nan 0 0 0 -0 -0 0 0 0 0 0 0 0 0 0 -0 0 0 0 0 0 -0 0 0 -0 0 0 0 0 0 -0 -0 0 1 0 -0 -0 1 0 0 0 1 nan
nan 0 0 0 0 0 1 0 0 0 1 1 0 0 -0 0 0 0 0 0 0 -0 0 0 0 0 0 0 0 -0 -1 -0 0 0 0 0 1 1 0 -0 0 0 nan
nan 0 0 0 0 1 1 0 1 1 1 0 0 0 0 1 1 0 -0 -0 0 0 0 0 0 0 0 -0 -0 -0 0 0 -0 -0 0 1 1 0 -0 0 0 0 nan
nan 0 1 1 1 1 1 1 1 1 0 -0 0 0 1 0 0 0 -0 -0 0 0 1 1 0 0 0 0 0 -0 0 0 0 0 -0 1 1 0 0 0 0 0 nan
nan 1 1 1 1 1 1 1 1 1 0 1 1 1 1 0 0 0 0 0 0 0 1 0 0 0 -0 -0 0 0 -0 -0 0 0 0 0 0 0 0 0 0 0 nan
nan 0 1 0 1 1 1 1 1 0 1 1 1 1 1 1 1 1 1 0 -0 -0 0 0 0 0 0 -0 0 0 0 -0 -0 1 1 -0 -0 -0 0 0 0 0 nan
nan 0 1 1 1 1 1 1 1 1 1 1 1 1 1 0 0 0 0 0 -0 -0 0 0 0 0 0 -0 0 0 0 0 0 0 1 0 -0 -0 -0 0 0 0 nan
nan 0 0 1 1 0 1 1 1 1 1 1 0 0 0 0 0 0 0 0 -0 0 0 0 0 0 -0 -0 -0 0 0 0 0 1 1 0 -0 -0 -0 0 0 0 nan
nan 0 0 0 0 0 0 0 0 0 0 0 0 0 0 0 0 0 0 0 0 0 0 0 0 0 -0 -0 -0 -0 0 1 1 1 1 0 0 0 -0 -0 0 0 nan
nan 0 0 0 0 0 0 0 0 0 0 0 0 0 0 0 0 0 0 0 0 0 0 0 0 0 -0 -0 -0 -0 0 1 1 1 1 0 -0 -0 0 0 0 0 nan
nan -0 0 0 0 0 0 0 0 -0 -0 0 0 0 0 0 0 0 0 0 0 0 0 0 0 0 0 -0 -1 -0 0 1 1 0 -0 -0 0 -0 0 0 0 0 nan
nan -0 0 0 0 0 0 0 -0 -0 0 0 0 0 0 0 0 0 0 0 0 0 0 0 0 0 0 -0 -1 -0 0 0 0 0 -0 -0 0 0 0 0 0 -0 nan
nan -0 0 0 0 0 0 0 0 0 0 0 0 0 0 0 0 0 0 0 0 0 0 0 0 0 0 0 -0 -0 0 0 -0 -0 0 0 0 0 0 0 -0 0 nan
nan 0 0 0 0 0 0 0 0 0 0 0 0 0 0 0 0 0 0 0 0 0 0 0 0 1 1 0 0 -0 -0 -0 -0 0 0 0 0 -0 -0 -0 0 0 nan
nan 0 0 0 0 0 0 0 0 0 0 0 0 0 0 0 0 0 0 0 0 -0 0 0 1 1 0 0 0 0 0 -0 0 0 -0 -0 -0 -0 0 0 0 -0 nan
nan 0 0 0 0 0 0 0 0 0 0 0 0 0 0 0 0 0 0 0 0 0 0 0 0 1 0 0 0 0 0 0 -0 -0 0 0 -0 -0 0 0 0 -0 nan
nan 0 0 0 0 0 0 0 0 0 0 0 0 0 0 0 0 0 0 -0 0 0 0 0 1 0 0 1 0 0 0 0 0 -0 -0 -0 0 -0 -0 0 0 -0 nan
nan nan nan nan nan nan nan nan nan nan nan nan nan nan nan nan nan nan nan nan nan nan nan nan nan nan nan nan nan nan nan nan nan nan nan nan nan nan nan nan nan nan nan
Wind_Speed
20 19 23 30 31 32 31 32 30 30 28 28 30 27 29 25 21 20 18 15 15 13 15 17 20 22 22 19 17 16 15 15 13 13 14 14 14 15 14 14 12 13 13
24 22 21 24 30 31 31 32 30 28 28 29 32 30 27 27 25 22 21 20 19 17 15 14 15 19 18 15 14 14 14 14 14 14 13 11 11 12 14 15 14 14 16
27 26 23 22 21 23 29 31 29 31 32 32 29 26 26 26 29 29 28 26 23 21 21 18 13 15 15 10 13 14 14 14 14 15 13 6 3 6 9 13 17 16 17
24 29 27 26 22 20 23 25 26 27 28 31 28 26 28 30 29 29 29 27 24 24 23 23 21 20 20 21 22 17 19 19 17 15 17 17 19 11 8 12 15 17 18
18 21 33 31 26 22 22 25 25 24 25 26 28 26 25 26 27 32 30 27 24 22 23 24 24 21 22 21 20 21 20 17 16 14 14 12 19 17 16 22 19 19 18
12 11 22 35 31 25 23 24 25 26 26 25 25 25 25 25 23 26 31 32 25 17 17 19 16 17 13 12 11 12 13 15 14 16 17 18 22 22 20 27 25 24 22
18 14 21 35 33 31 28 26 26 26 23 21 22 24 25 24 24 20 16 14 16 16 16 19 23 26 27 25 17 16 17 18 18 14 20 21 27 27 25 27 26 26 25
22 17 15 29 32 28 27 25 24 23 22 23 22 22 23 23 19 17 15 16 15 15 20 22 22 20 20 25 25 28 32 34 35 27 22 25 30 30 29 28 25 25 23
21 22 19 16 27 26 26 24 23 22 23 24 25 24 23 23 23 21 20 18 18 19 19 20 17 16 18 17 13 17 22 25 29 30 32 33 35 33 29 27 26 25 24
32 30 25 21 24 25 28 24 20 21 22 26 25 24 21 21 20 20 21 22 21 21 21 21 22 23 23 24 25 28 29 29 29 29 30 31 32 31 29 26 28 29 28
25 26 25 23 26 30 26 23 23 23 23 22 22 23 24 25 24 23 23 20 18 19 23 24 23 23 24 25 25 25 24 23 23 23 23 24 27 26 26 27 25 25 27
8 15 27 25 28 29 26 26 25 25 24 23 24 26 25 24 21 18 17 17 19 20 17 18 19 19 20 21 22 22 23 23 23 23 23 23 22 22 20 21 26 22 23
7 10 13 28 31 28 27 24 25 26 24 23 24 23 21 20 20 20 20 18 16 17 16 17 17 17 17 19 20 21 22 23 22 23 22 21 19 18 19 20 21 21 22
4 8 11 15 24 25 24 25 24 21 22 23 22 22 22 21 21 19 17 16 17 17 18 18 17 16 16 17 18 19 20 22 21 21 20 17 18 19 19 20 21 23 22
2 6 12 17 20 22 22 19 18 19 20 20 22 22 21 20 19 17 16 16 15 15 15 14 13 14 14 15 16 18 20 20 21 20 20 20 20 22 22 21 21 21 23
2 5 10 14 15 16 18 19 19 19 18 19 20 20 19 17 16 16 14 14 13 13 12 12 14 15 16 16 18 19 22 23 23 21 21 21 22 23 25 25 24 24 23
6 8 11 13 14 14 14 14 13 13 15 15 16 16 15 15 14 13 12 12 12 12 13 14 16 17 18 19 19 20 21 23 24 23 23 21 21 22 23 23 23 23 22
8 9 9 11 10 10 11 9 11 13 14 14 15 14 14 14 13 13 13 13 13 14 14 16 17 19 20 22 23 22 21 21 21 21 21 19 19 20 20 18 15 15 16
3 8 10 9 10 10 9 10 13 13 13 14 14 13 13 13 13 13 12 12 13 14 15 16 18 19 20 22 22 20 19 19 18 18 17 16 16 15 15 14 14 14 15
6 6 13 13 11 11 10 12 12 12 13 13 12 13 13 14 13 13 12 13 14 15 17 18 19 21 21 20 20 19 16 16 15 15 15 14 14 14 14 13 12 12 13
5 6 12 14 12 11 11 11 11 12 10 11 13 14 14 14 13 13 13 14 15 17 18 19 19 19 18 17 17 18 15 13 14 14 14 13 13 14 14 13 13 13 13
1 2 10 14 14 13 12 11 11 9 13 13 14 14 14 14 14 14 14 15 17 19 20 20 18 17 16 16 14 15 15 13 12 13 13 12 13 12 13 12 12 14 14
5 3 5 7 10 12 13 13 11 12 13 14 14 14 14 15 15 15 15 17 18 20 20 19 18 16 15 16 16 16 17 16 14 11 12 12 13 12 13 13 13 15 13
5 5 4 4 6 8 11 12 13 13 13 14 14 14 15 15 15 15 15 16 18 19 19 18 18 16 16 18 18 18 16 16 14 12 13 14 15 15 14 14 15 15 13
3 3 3 3 2 2 3 5 6 8 10 11 12 13 14 14 15 15 15 15 15 17 18 18 18 18 18 17 18 18 18 15 12 14 15 16 17 17 16 16 15 15 15
3 2 2 2 1 1 3 5 7 8 9 11 12 13 14 15 15 15 15 14 13 14 15 18 20 19 19 18 18 18 16 14 13 15 17 17 16 16 16 16 15 16 16
Wind_Direction
192 187 192 193 193 197 198 199 201 202 201 200 202 195 199 203 208 215 229 240 229 232 227 234 237 239 240 247 249 251 249 250 249 253 258 262 263 264 266 262 258 259 264
211 190 188 189 198 200 202 201 204 207 210 210 218 208 204 210 214 220 225 234 235 239 237 241 241 235 235 238 244 250 250 247 248 256 266 280 283 273 256 251 246 248 247
211 196 195 193 194 195 201 204 207 211 217 221 219 216 208 213 212 221 228 229 231 234 242 238 232 233 224 245 261 255 253 251 248 252 251 278 277 308 278 275 244 246 254
219 205 202 201 195 197 200 200 199 207 218 224 229 223 222 223 226 228 227 226 228 226 235 245 240 232 231 233 229 244 249 248 251 267 276 263 270 280 295 277 267 246 237
207 206 212 209 204 204 207 208 206 208 215 218 224 228 230 231 234 233 231 234 229 227 232 233 239 245 247 252 242 245 246 256 257 259 260 264 276 275 281 273 259 245 244
202 221 214 204 205 205 210 212 214 218 216 219 220 222 226 225 225 228 225 225 233 232 231 236 239 246 243 237 247 249 257 261 272 280 278 265 267 274 278 267 268 266 263
211 197 205 207 206 203 208 212 219 219 223 222 218 222 221 225 225 239 230 210 211 217 232 244 264 267 263 261 242 254 261 257 260 269 267 276 269 272 272 268 266 263 262
210 210 209 208 209 208 217 220 223 223 223 220 217 218 218 227 227 218 234 240 239 245 247 246 250 254 247 252 261 270 261 253 264 263 262 271 271 270 264 265 265 263 259
215 218 215 211 212 218 222 222 222 224 225 225 219 215 218 223 226 231 220 216 240 253 248 253 258 264 264 255 253 267 266 265 269 264 260 259 261 262 264 260 261 262 257
225 229 227 212 206 214 222 224 225 227 231 221 223 215 212 215 209 217 229 250 254 252 257 267 267 265 265 267 272 274 274 273 272 271 270 265 262 261 257 263 264 261 260
231 230 220 215 204 209 213 215 217 220 220 215 213 214 219 221 229 244 242 242 256 264 268 269 269 269 268 268 268 268 270 273 275 275 273 269 262 256 256 256 257 257 263
166 206 220 215 202 206 207 209 211 211 214 216 217 221 225 230 230 229 230 230 257 261 263 262 262 262 262 265 268 272 272 274 275 274 272 268 263 260 260 249 252 256 253
137 156 179 200 202 205 210 212 216 215 215 220 222 222 220 215 212 216 222 238 243 256 259 261 266 268 271 275 277 278 277 275 274 273 272 264 257 257 264 260 255 257 249
139 163 173 186 201 209 211 208 208 214 218 218 218 217 213 217 220 226 234 241 250 260 269 273 276 278 281 283 285 286 285 281 279 275 271 268 255 254 252 249 258 259 252
171 181 176 179 190 197 201 205 214 220 224 226 224 223 225 233 239 242 246 250 255 261 264 268 273 278 284 288 292 292 289 285 279 275 267 263 258 259 257 257 256 261 267
248 210 193 195 201 211 218 218 223 228 229 228 228 227 227 229 231 234 239 246 254 260 266 272 277 282 285 290 295 296 292 285 277 274 267 261 258 259 259 259 257 256 256
249 225 220 219 223 227 225 219 216 212 210 209 210 211 213 220 226 232 239 247 255 264 270 276 280 283 285 287 291 294 294 282 274 267 262 260 257 256 258 259 257 254 252
234 240 232 216 212 214 207 195 200 206 204 205 209 214 217 220 225 232 241 251 260 267 272 277 282 285 288 289 291 293 300 289 272 266 265 263 261 258 260 261 253 246 239
245 250 239 238 215 213 204 199 206 208 210 212 214 216 220 226 232 240 248 258 267 273 278 282 285 286 287 287 287 288 304 298 276 265 265 267 266 262 250 248 242 241 240
272 255 214 217 217 211 210 212 215 219 219 219 221 224 226 231 237 244 253 263 270 275 279 283 285 287 287 286 288 287 303 296 277 264 261 260 256 249 246 240 238 236 240
283 253 203 208 215 217 220 222 227 230 229 225 225 230 234 238 244 251 262 272 276 280 283 284 285 285 284 286 290 299 296 280 269 261 258 253 252 244 246 236 238 239 238
135 110 192 201 207 210 221 231 240 239 235 237 238 241 245 249 254 262 270 276 281 286 288 289 288 288 288 288 287 286 288 271 264 260 255 250 248 246 247 247 237 238 237
76 147 158 176 198 210 218 230 241 246 245 246 247 247 249 252 255 261 270 276 284 287 286 285 287 291 293 290 286 281 277 267 259 253 254 250 252 247 247 247 239 240 239
72 88 114 157 196 216 227 238 245 247 244 243 245 249 249 249 251 260 269 281 286 286 283 281 285 288 285 285 286 282 274 263 255 256 256 253 252 254 249 242 238 240 231
73 75 87 107 121 157 196 220 231 238 243 242 243 248 251 254 262 266 273 282 288 288 288 287 283 280 281 285 280 275 272 255 251 258 258 256 254 253 250 246 240 238 233
80 64 61 56 24 313 275 257 253 254 256 256 255 256 256 257 261 269 275 281 286 286 292 291 284 281 283 281 272 266 264 240 243 253 255 256 256 254 252 247 245 242 239
Height
1491 1493 1494 1499 1504 1506 1510 1515 1518 1524 1529 1534 1537 1539 1544 1549 1552 1555 1559 1562 1564 1565 1566 1568 1569 1571 1572 1573 1574 1575 1575 1576 1576 1576 1575 1575 1575 1576 1576 1577 1576 1578 1577
1490 1491 1495 1498 1501 1505 1509 1513 1519 1523 1526 1529 1535 1535 1542 1547 1552 1554 1556 1558 1561 1563 1564 1565 1567 1567 1569 1570 1572 1573 1573 1574 1574 1574 1574 1573 1572 1572 1573 1573 1573 1573 1574
1489 1491 1493 1496 1500 1502 1507 1512 1517 1521 1524 1529 1532 1536 1540 1544 1547 1548 1551 1553 1557 1559 1561 1562 1563 1564 1564 1565 1569 1570 1569 1571 1571 1572 1573 1572 1570 1570 1570 1570 1570 1570 1570
1487 1489 1491 1495 1499 1502 1506 1511 1514 1519 1523 1525 1528 1533 1533 1538 1544 1546 1548 1551 1553 1555 1558 1559 1560 1561 1560 1561 1561 1564 1564 1565 1566 1566 1567 1568 1569 1568 1568 1568 1568 1567 1567
1484 1486 1488 1492 1496 1501 1504 1509 1513 1516 1520 1524 1527 1530 1533 1537 1540 1541 1545 1547 1549 1550 1552 1552 1554 1556 1558 1557 1558 1561 1561 1563 1563 1562 1562 1563 1566 1565 1563 1565 1565 1564 1563
1479 1481 1485 1490 1494 1498 1502 1506 1511 1516 1517 1521 1526 1529 1531 1532 1534 1536 1539 1541 1544 1547 1549 1549 1550 1551 1547 1553 1555 1556 1558 1558 1558 1559 1559 1559 1561 1560 1559 1561 1560 1559 1559
1478 1480 1481 1486 1491 1494 1499 1503 1507 1511 1517 1520 1522 1524 1527 1530 1532 1533 1537 1540 1542 1544 1546 1546 1546 1544 1546 1547 1552 1551 1553 1554 1553 1553 1552 1553 1554 1555 1554 1555 1554 1552 1553
1474 1476 1481 1483 1487 1493 1499 1503 1506 1508 1514 1517 1520 1523 1525 1528 1531 1532 1535 1538 1541 1543 1543 1543 1543 1541 1544 1543 1544 1546 1547 1548 1548 1548 1547 1547 1549 1549 1548 1548 1549 1548 1547
1468 1475 1478 1481 1486 1491 1496 1501 1503 1505 1511 1515 1517 1520 1522 1525 1527 1530 1532 1535 1537 1539 1539 1540 1539 1540 1540 1540 1538 1541 1542 1542 1542 1542 1542 1541 1542 1541 1542 1542 1542 1543 1542
1466 1470 1472 1479 1484 1489 1494 1497 1500 1503 1508 1511 1514 1516 1520 1523 1525 1527 1530 1532 1534 1535 1535 1536 1536 1536 1537 1536 1536 1537 1537 1535 1535 1534 1534 1533 1533 1533 1534 1535 1537 1538 1536
1461 1465 1471 1477 1482 1487 1492 1496 1499 1502 1504 1507 1511 1515 1518 1520 1523 1525 1527 1528 1530 1531 1532 1532 1531 1531 1531 1531 1531 1530 1530 1528 1528 1527 1526 1526 1528 1527 1528 1528 1529 1530 1533
1460 1463 1469 1473 1479 1484 1488 1493 1498 1500 1503 1506 1508 1511 1514 1517 1519 1521 1523 1525 1525 1525 1526 1526 1527 1526 1527 1527 1527 1525 1525 1524 1523 1522 1521 1520 1521 1521 1521 1522 1524 1524 1526
1463 1465 1467 1472 1478 1483 1486 1490 1495 1498 1500 1503 1506 1508 1510 1513 1515 1517 1519 1521 1521 1521 1522 1523 1524 1524 1523 1522 1522 1522 1521 1519 1517 1518 1517 1516 1516 1516 1517 1518 1520 1520 1520
1468 1468 1470 1472 1475 1480 1484 1488 1492 1495 1497 1501 1502 1506 1508 1510 1513 1515 1516 1518 1519 1518 1518 1518 1519 1519 1518 1518 1516 1516 1515 1515 1511 1510 1513 1512 1512 1512 1512 1513 1514 1516 1516
1467 1469 1470 1473 1476 1480 1483 1485 1489 1493 1496 1497 1501 1504 1506 1509 1510 1512 1513 1515 1515 1515 1515 1515 1516 1515 1515 1514 1513 1512 1511 1508 1508 1505 1507 1509 1507 1508 1508 1508 1508 1510 1511
1469 1470 1473 1475 1476 1479 1482 1485 1487 1490 1491 1494 1498 1501 1503 1505 1507 1509 1511 1512 1512 1512 1512 1512 1512 1512 1511 1510 1508 1507 1506 1504 1503 1501 1502 1502 1502 1503 1503 1503 1503 1504 1505
1471 1472 1472 1474 1476 1478 1481 1482 1484 1487 1489 1493 1496 1499 1500 1503 1505 1507 1508 1509 1509 1509 1509 1509 1509 1509 1508 1506 1505 1503 1500 1499 1497 1496 1497 1496 1496 1498 1497 1497 1498 1498 1499
1471 1472 1473 1474 1476 1479 1481 1480 1483 1487 1490 1492 1495 1497 1499 1501 1503 1504 1506 1507 1507 1506 1506 1506 1506 1505 1503 1501 1500 1498 1495 1493 1491 1491 1491 1492 1492 1492 1492 1493 1493 1494 1495
1470 1470 1471 1473 1475 1477 1478 1480 1485 1487 1488 1491 1493 1495 1497 1500 1501 1502 1503 1503 1503 1503 1503 1502 1501 1500 1499 1497 1495 1493 1491 1488 1487 1487 1487 1487 1488 1487 1489 1490 1490 1491 1494
1469 1469 1470 1472 1474 1476 1479 1482 1484 1485 1487 1490 1492 1494 1496 1498 1498 1499 1499 1499 1500 1500 1499 1498 1497 1495 1494 1492 1490 1488 1485 1485 1484 1483 1483 1484 1485 1485 1486 1487 1489 1489 1492
1467 1466 1467 1471 1473 1476 1478 1480 1483 1484 1487 1488 1490 1491 1493 1494 1495 1495 1495 1496 1496 1495 1495 1493 1492 1490 1489 1488 1486 1484 1482 1481 1481 1480 1480 1481 1482 1483 1484 1485 1486 1487 1487
1468 1467 1468 1470 1473 1475 1477 1480 1482 1484 1484 1486 1487 1489 1490 1490 1491 1491 1491 1492 1491 1490 1489 1488 1486 1485 1484 1483 1483 1481 1479 1479 1478 1478 1478 1479 1479 1480 1481 1482 1482 1483 1484
1469 1469 1470 1471 1473 1474 1476 1478 1480 1481 1482 1483 1485 1486 1486 1487 1487 1487 1488 1487 1487 1485 1484 1482 1482 1481 1481 1480 1480 1479 1477 1476 1475 1475 1476 1476 1477 1477 1478 1479 1479 1479 1480
1472 1472 1471 1472 1473 1474 1474 1476 1477 1478 1479 1480 1481 1482 1482 1483 1483 1483 1483 1483 1482 1481 1480 1478 1477 1478 1477 1476 1476 1475 1474 1472 1472 1473 1473 1473 1474 1474 1475 1475 1476 1476 1477
1473 1473 1473 1473 1472 1472 1473 1473 1474 1476 1477 1477 1477 1478 1479 1479 1480 1479 1479 1478 1477 1477 1475 1474 1473 1473 1472 1472 1471 1470 1469 1469 1470 1470 1470 1470 1470 1470 1471 1472 1473 1473 1474
1474 1474 1473 1472 1472 1472 1473 1473 1473 1473 1473 1474 1473 1474 1475 1475 1475 1475 1474 1474 1473 1472 1470 1469 1468 1468 1466 1466 1466 1465 1465 1466 1466 1465 1466 1466 1466 1467 1468 1469 1470 1471 1472